Watersmeet, MI

7:54 AM CST on December 11, 2016 (GMT -0600)
Kings Land O'Lakes

Weather History for KLNL - July, 2013

Change the Weather History Date:

Sunday, July 7, 2013

  Actual Average (KEGV) Record (KEGV)
Temperature  
Mean Temperature 74 °F -  
Max Temperature 84 °F 75 °F 94 °F (1980)
Min Temperature 65 °F 50 °F 37 °F (1997)
Cooling Degree Days 9    
Growing Degree Days 24 (Base 50)    
Moisture  
Dew Point 66 °F    
Average Humidity 78    
Maximum Humidity 97    
Minimum Humidity 50    
Precipitation  
Precipitation 0.09 in - - ()
Sea Level Pressure  
Sea Level Pressure 29.95 in    
Wind  
Wind Speed 3 mph (SSW)    
Max Wind Speed 9 mph    
Max Gust Speed -    
Visibility 9 miles    
Events Rain , Thunderstorm    
Averages and records for this station are not official NWS values.
T = Trace of Precipitation, MM = Missing Value Source: NWS Daily Summary

Daily Weather History Graph

Daily Weather History Graph

Search for Another Location

Airport or City:

Trip Planner

Search our weather history database for the weather conditions in past years. The results will help you decide how hot, cold, wet, or windy it might be!

Date:

Astronomy

Jul. 07, 2013 Rise Set
Actual Time 5:13 AM CDT 8:49 PM CDT
Civil Twilight 4:35 AM CDT 9:27 PM CDT
Nautical Twilight 3:44 AM CDT 10:18 PM CDT
Astronomical Twilight 2:36 AM CDT 11:25 PM CDT
Moon 4:53 AM CDT (7/7) 8:08 PM CDT (7/7)
Length of Visible Light 16h 51m
Length of Day
15h 36m
Waning Crescent, 0% of the Moon is Illuminated
Jul 7
Waning Crescent
Jul 8
New
Jul 15
First Quarter
Jul 22
Full
Jul 29
Last Quarter

Hourly Weather History & Observations

Time (CDT) Temp. Heat Index Dew Point Humidity Pressure Visibility Wind Dir Wind Speed Gust Speed Precip Events Conditions
12:15 AM 72.5 °F - 61.9 °F 69% 29.95 in 10.0 mi South 3.5 mph - N/A   Scattered Clouds
12:35 AM 72.5 °F - 61.9 °F 69% 29.94 in 10.0 mi South 4.6 mph - N/A   Mostly Cloudy
12:55 AM 72.3 °F - 62.6 °F 71% 29.94 in 10.0 mi SSW 4.6 mph - N/A Rain Light Rain
1:15 AM 71.8 °F - 63.0 °F 74% 29.94 in 10.0 mi South 4.6 mph - N/A   Drizzle
1:35 AM 71.6 °F - 63.0 °F 74% 29.95 in 10.0 mi South 3.5 mph - N/A   Overcast
1:55 AM 71.2 °F - 63.0 °F 75% 29.95 in 10.0 mi South 3.5 mph - N/A Rain Light Rain
2:15 AM 70.2 °F - 63.9 °F 80% 29.96 in 10.0 mi Calm Calm - N/A   Overcast
2:35 AM 69.8 °F - 64.9 °F 84% 29.97 in 10.0 mi North 4.6 mph - N/A Rain Light Rain
2:55 AM 69.3 °F - 65.3 °F 87% 29.97 in 10.0 mi Calm Calm - N/A   Overcast
3:15 AM 69.3 °F - 65.7 °F 88% 29.97 in 10.0 mi North 5.8 mph - N/A   Overcast
3:35 AM 68.9 °F - 65.7 °F 89% 29.96 in 10.0 mi Calm Calm - N/A   Overcast
3:55 AM 68.4 °F - 65.5 °F 90% 29.95 in 7.0 mi Calm Calm - N/A   Overcast
4:15 AM 68.2 °F - 65.7 °F 92% 29.95 in 7.0 mi Calm Calm - N/A   Overcast
4:35 AM 68.0 °F - 65.5 °F 92% 29.96 in 7.0 mi Calm Calm - N/A Rain Light Rain
4:55 AM 67.5 °F - 66.0 °F 95% 29.96 in 4.0 mi NNW 4.6 mph - N/A Rain Rain
5:15 AM 67.5 °F - 66.2 °F 96% 29.96 in 4.0 mi Calm Calm - 0.01 in Rain Heavy Rain
5:35 AM 67.6 °F - 66.2 °F 95% 29.95 in 3.0 mi Calm Calm - 0.01 in Rain , Thunderstorm Rain
5:55 AM 67.3 °F - 66.2 °F 96% 29.95 in 1.8 mi SE 3.5 mph - 0.02 in Rain , Thunderstorm Heavy Thunderstorms and Rain
6:15 AM 67.3 °F - 66.4 °F 97% 29.94 in 3.0 mi East 3.5 mph - N/A Rain , Thunderstorm Thunderstorms and Rain
6:35 AM 67.1 °F - 66.2 °F 97% 29.95 in 4.0 mi NNE 6.9 mph - 0.01 in Rain , Thunderstorm Light Thunderstorms and Rain
6:55 AM 66.7 °F - 65.5 °F 96% 29.99 in 1.2 mi North 9.2 mph - 0.01 in Rain , Thunderstorm Heavy Thunderstorms and Rain
7:35 AM 65.8 °F - 63.9 °F 93% 29.98 in 4.0 mi South 3.5 mph - 0.01 in Rain , Thunderstorm Heavy Thunderstorms and Rain
8:15 AM 65.7 °F - 64.8 °F 97% 30.00 in 4.0 mi South 3.5 mph - 0.01 in Rain , Thunderstorm Thunderstorms and Rain
8:55 AM 66.2 °F - 65.3 °F 97% 29.97 in 10.0 mi Calm Calm - 0.02 in   Overcast
9:55 AM 67.3 °F - 66.2 °F 96% 29.94 in 10.0 mi SSW 5.8 mph - 0.02 in   Mostly Cloudy
10:35 AM 69.4 °F - 67.3 °F 93% 29.94 in 10.0 mi SW 6.9 mph - N/A   Scattered Clouds
11:55 AM 77.7 °F - 67.6 °F 71% 29.93 in 10.0 mi South 9.2 mph - 0.01 in   Clear
12:35 PM 79.7 °F - 66.6 °F 64% 29.93 in 10.0 mi SW 6.9 mph - N/A   Clear
12:55 PM 81.9 °F 84.1 °F 66.4 °F 59% 29.94 in 10.0 mi SW 5.8 mph - N/A   Clear
1:35 PM 82.6 °F 84.5 °F 65.5 °F 56% 29.94 in 10.0 mi WSW 6.9 mph - N/A   Clear
2:15 PM 82.9 °F 84.8 °F 65.5 °F 55% 29.94 in 10.0 mi SSW 3.5 mph - N/A   Clear
2:35 PM 82.4 °F 83.9 °F 64.4 °F 54% 29.94 in 10.0 mi SW 4.6 mph - N/A   Scattered Clouds
3:15 PM 83.3 °F 84.3 °F 62.6 °F 50% 29.94 in 10.0 mi WSW 8.1 mph - N/A   Mostly Cloudy
3:35 PM 82.4 °F 83.9 °F 64.0 °F 54% 29.94 in 10.0 mi SSW 6.9 mph - N/A   Mostly Cloudy
3:55 PM 83.1 °F 84.6 °F 64.4 °F 53% 29.94 in 10.0 mi SW 4.6 mph - N/A   Mostly Cloudy
4:15 PM 83.5 °F 85.1 °F 64.6 °F 53% 29.94 in 10.0 mi SSW 5.8 mph - N/A   Scattered Clouds
4:35 PM 83.3 °F 84.8 °F 64.8 °F 53% 29.94 in 10.0 mi SW 4.6 mph - N/A   Scattered Clouds
4:55 PM 82.6 °F 84.1 °F 64.4 °F 54% 29.94 in 10.0 mi WSW 4.6 mph - N/A   Mostly Cloudy
5:15 PM 81.9 °F 83.5 °F 64.9 °F 56% 29.94 in 10.0 mi SW 6.9 mph - N/A   Mostly Cloudy
5:35 PM 81.7 °F 83.5 °F 65.3 °F 57% 29.94 in 10.0 mi WSW 3.5 mph - N/A   Scattered Clouds
5:55 PM 80.6 °F 82.8 °F 66.4 °F 62% 29.93 in 10.0 mi Calm Calm - N/A   Mostly Cloudy
6:15 PM 81.3 °F 83.5 °F 66.4 °F 60% 29.93 in 10.0 mi Calm Calm - N/A   Mostly Cloudy
6:35 PM 80.8 °F 83.2 °F 66.9 °F 63% 29.94 in 10.0 mi Calm Calm - N/A   Mostly Cloudy
6:55 PM 79.9 °F - 68.0 °F 67% 29.93 in 10.0 mi Calm Calm - N/A   Mostly Cloudy
7:15 PM 78.8 °F - 70.3 °F 75% 29.93 in 10.0 mi Calm Calm - N/A   Overcast
7:35 PM 77.9 °F - 70.7 °F 78% 29.94 in 10.0 mi Calm Calm - N/A   Overcast
7:55 PM 77.2 °F - 71.2 °F 82% 29.94 in 10.0 mi Calm Calm - N/A   Overcast
8:15 PM 76.3 °F - 71.1 °F 84% 29.94 in 10.0 mi Calm Calm - N/A   Mostly Cloudy
8:35 PM 74.3 °F - 71.4 °F 91% 29.95 in 7.0 mi North 3.5 mph - N/A   Scattered Clouds
8:55 PM 75.7 °F - 70.2 °F 83% 29.96 in 10.0 mi Calm Calm - N/A   Scattered Clouds
9:15 PM 75.2 °F - 70.0 °F 84% 29.96 in 10.0 mi Calm Calm - N/A   Mostly Cloudy
9:35 PM 74.7 °F - 70.0 °F 85% 29.96 in 10.0 mi Calm Calm - N/A   Scattered Clouds
9:55 PM 74.3 °F - 69.8 °F 86% 29.96 in 10.0 mi Calm Calm - N/A   Mostly Cloudy
10:15 PM 73.9 °F - 69.4 °F 86% 29.95 in 10.0 mi East 3.5 mph - N/A   Overcast
10:35 PM 73.6 °F - 69.3 °F 86% 29.95 in 10.0 mi Calm Calm - N/A   Mostly Cloudy
10:55 PM 73.4 °F - 69.3 °F 87% 29.95 in 10.0 mi NE 3.5 mph - N/A Thunderstorm Mostly Cloudy
11:15 PM 72.9 °F - 69.3 °F 88% 29.95 in 10.0 mi Calm Calm - N/A Thunderstorm Thunderstorm
11:35 PM 72.7 °F - 69.4 °F 90% 29.97 in 10.0 mi Calm Calm - N/A Thunderstorm Thunderstorm